TITAN 34B R/B, 12446

Orbit data source: Space-Track

TITAN 34B R/B, 12446 is space debris in HEO originally from a launch on Fri, 24 Apr 1981 UTC launched from the Air Force Western Test Range (AFWTR). Debris objects in space refer to the collection of defunct objects orbiting the Earth. Examples of debris include non-operational satellites, rocket bodies, and fragments generated from explosions, collisions, or faulty payload assembly.

Loading next visibility...
Identifier
12446, 1981-038B
Orbit
HEO
Country
Flag of USUS
Related business
Manufacturer
LMSC
Mission
Spacecraft
Bus & Motor
AGENA D, Unknown motor
Mass
600 kg wet, 600 kg dry
Launch date (UTC)
1981-04-24 (45 years ago)
Launch vehicle
Unknown
Launch site
Air Force Western Test Range (AFWTR)
Object type
Payload
Rocket body
Debris
Shape & HBR
Unknown
Radar Cross Section
Large (>1 m²)

Expand to show TLE details & history
Last TLE update: 2 days ago

TLE from 2 days ago
0 TITAN 34B R/B
1 12446U 81038B   26171.43080014  .00002213  00000-0  71001-3 0  9994
2 12446  63.2061 273.2244 5551676 290.8455  19.8959  4.69186352 96166
Epoch: 2026-06-20T10:20Z
TLE epoch observation values (Epoch: 2026-06-20T10:20:21.132Z)
Latitude
-0.00005°
Longitude
-150.52352°
Altitude
2,337.254 km
Speed
8.065 km/s
True Right ascension
18h 12m 50s
True Declination
0° 00' 00"
Sunlit
Object was in full shadow at epoch
Visualization orbit readout
Latitude
Unknown
Longitude
Unknown
Altitude
Unknown
Speed
Unknown
Apparent Right ascension
Unknown
Apparent Declination
Unknown
Sunlit
N/A
Visualization observer readout
Local Sidereal Time
23:27:18
Azimuth
Unknown
Elevation
Unknown
Doppler factor
Unknown
Orbital elements
Apogee altitude
17,059.86 km
Perigee altitude
325.951 km
Semi-major axis
15,071.043 km
Eccentricity
0.55517
Inclination
63.2061°
RAAN
273.2244°
Arg. of periapsis
290.8455°
True anomaly
69.33014°
Mean anomaly
19.8959°
Eccentric anomaly
40.59347°
Mean motion
1.17308 °/min
Orbital period
306.88 mins
BSTAR
0.00071001
Loading maneuver chart data...
Computing Atmospheric mass density...
Loading historical data...
Loading historical data...
Loading historical data...
Loading historical data...
Loading historical data...
Loading historical data...
Loading historical data...

Documentation

Showing up to 5 results
|